Tracking 19280 objects as of 13-Nov-2018
HD Live streaming from Space Station
objects crossing your sky now

MOLNIYA 1-52

Track MOLNIYA 1-52 now!
MOLNIYA 1-52 is classified as:


NORAD ID: 13012
Int'l Code: 1981-123A
Perigee: 1,626.9 km
Apogee: 38,778.4 km
Inclination: 64.0 °
Period: 718.5 minutes
Semi major axis: 26573 km
RCS: 16.6943 m2 (large)
Launch date: December 23, 1981
Source: Commonwealth of Independent States (former USSR) (CIS)
Launch site: TYURATAM MISSILE AND SPACE COMPLEX (TTMTR)
aabbcc
Your satellite tracking list
Your tracking list is empty




NASA's NSSDC Master Catalog

Two Line Element Set (TLE):
1 13012U 81123A   18317.50479046  .00000900  00000-0  00000+0 0  9995
2 13012  64.0458 102.6097 6990293 249.9817  26.7280  2.00413183270320
Source of the keplerian elements: AFSPC